TimeMST,TemperatureF,Dew PointF,Humidity,Sea Level PressureIn,VisibilityMPH,Wind Direction,Wind SpeedMPH,Gust SpeedMPH,PrecipitationIn,Events,Conditions,WindDirDegrees,DateUTC
12:11 AM,29.5,-6.5,21,30.23,10.0,NNW,5.8,-,N/A,,Clear,330,2012-11-13 07:11:00
12:31 AM,29.3,-4.9,23,30.22,10.0,North,5.8,-,N/A,,Clear,350,2012-11-13 07:31:00
12:51 AM,30.7,-7.1,19,30.21,10.0,Calm,Calm,-,N/A,,Clear,0,2012-11-13 07:51:00
1:11 AM,28.4,-2.7,26,30.21,10.0,Calm,Calm,-,N/A,,Clear,0,2012-11-13 08:11:00
1:31 AM,30.6,-6.2,20,30.20,10.0,North,5.8,-,N/A,,Clear,350,2012-11-13 08:31:00
1:51 AM,31.3,-3.6,22,30.19,10.0,NNW,5.8,-,N/A,,Clear,340,2012-11-13 08:51:00
2:11 AM,31.5,-0.4,26,30.19,10.0,North,5.8,-,N/A,,Clear,360,2012-11-13 09:11:00
2:31 AM,32.9,0.9,26,30.18,10.0,North,5.8,-,N/A,,Clear,360,2012-11-13 09:31:00
2:51 AM,33.8,2.3,26,30.18,10.0,North,5.8,-,N/A,,Clear,350,2012-11-13 09:51:00
3:11 AM,34.2,4.6,29,30.18,10.0,NE,5.8,-,N/A,,Clear,50,2012-11-13 10:11:00
3:31 AM,35.8,6.6,30,30.16,10.0,North,5.8,-,N/A,,Scattered Clouds,350,2012-11-13 10:31:00
3:51 AM,38.1,6.4,27,30.16,10.0,North,6.9,-,N/A,,Mostly Cloudy,360,2012-11-13 10:51:00
4:11 AM,38.3,7.2,28,30.16,10.0,WSW,8.1,-,N/A,,Mostly Cloudy,250,2012-11-13 11:11:00
4:31 AM,37.9,8.1,29,30.16,10.0,NW,6.9,-,N/A,,Overcast,310,2012-11-13 11:31:00
4:51 AM,40.1,8.1,27,30.18,10.0,NW,8.1,-,N/A,,Overcast,320,2012-11-13 11:51:00
5:11 AM,40.3,7.7,26,30.18,10.0,NW,12.7,-,N/A,,Overcast,320,2012-11-13 12:11:00
5:31 AM,38.8,7.7,28,30.18,10.0,NNW,8.1,-,N/A,,Overcast,340,2012-11-13 12:31:00
5:51 AM,38.3,7.7,28,30.18,10.0,NNW,11.5,-,N/A,,Mostly Cloudy,330,2012-11-13 12:51:00
6:11 AM,38.5,7.7,28,30.18,10.0,North,11.5,-,N/A,,Overcast,350,2012-11-13 13:11:00
6:31 AM,39.2,7.5,27,30.18,10.0,North,11.5,16.1,N/A,,Overcast,350,2012-11-13 13:31:00
6:51 AM,39.6,7.0,26,30.19,10.0,NNW,10.4,17.3,N/A,,Overcast,340,2012-11-13 13:51:00
7:11 AM,39.4,7.5,27,30.19,10.0,North,9.2,-,N/A,,Mostly Cloudy,350,2012-11-13 14:11:00
7:31 AM,39.6,7.3,26,30.20,10.0,NNW,9.2,-,N/A,,Scattered Clouds,340,2012-11-13 14:31:00
7:51 AM,37.8,7.5,29,30.21,10.0,NNW,8.1,-,N/A,,Clear,340,2012-11-13 14:51:00
8:11 AM,42.3,7.5,24,30.21,10.0,North,12.7,-,N/A,,Clear,350,2012-11-13 15:11:00
8:31 AM,43.9,6.8,22,30.22,10.0,North,11.5,17.3,N/A,,Clear,350,2012-11-13 15:31:00
8:51 AM,45.5,7.0,21,30.22,10.0,North,9.2,-,N/A,,Clear,360,2012-11-13 15:51:00
9:11 AM,46.4,6.3,19,30.23,10.0,North,11.5,-,N/A,,Clear,350,2012-11-13 16:11:00
9:31 AM,46.8,6.6,19,30.23,10.0,NNW,15.0,19.6,N/A,,Clear,330,2012-11-13 16:31:00
9:51 AM,47.3,6.8,19,30.23,10.0,NNW,13.8,21.9,N/A,,Clear,340,2012-11-13 16:51:00
10:11 AM,47.7,8.4,20,30.23,10.0,NNW,17.3,27.6,N/A,,Clear,340,2012-11-13 17:11:00
10:31 AM,48.4,8.6,20,30.22,10.0,North,20.7,26.5,N/A,,Clear,350,2012-11-13 17:31:00
10:51 AM,48.0,8.8,20,30.21,10.0,North,17.3,28.8,N/A,,Clear,350,2012-11-13 17:51:00
11:11 AM,48.6,9.3,20,30.21,10.0,NW,17.3,25.3,N/A,,Clear,320,2012-11-13 18:11:00
11:51 AM,49.3,8.8,19,30.19,10.0,North,13.8,27.6,N/A,,Clear,360,2012-11-13 18:51:00
12:11 PM,49.1,8.6,19,30.20,10.0,North,11.5,24.2,N/A,,Clear,360,2012-11-13 19:11:00
12:31 PM,47.7,9.3,21,30.20,10.0,NNE,19.6,24.2,N/A,,Clear,30,2012-11-13 19:31:00
12:51 PM,47.8,8.8,21,30.19,10.0,NNE,18.4,25.3,N/A,,Clear,30,2012-11-13 19:51:00
1:11 PM,47.7,8.4,20,30.19,10.0,NNE,16.1,23.0,N/A,,Clear,30,2012-11-13 20:11:00
1:31 PM,47.5,9.1,21,30.19,10.0,North,12.7,21.9,N/A,,Clear,10,2012-11-13 20:31:00
1:51 PM,47.7,10.0,22,30.19,10.0,NNE,11.5,23.0,N/A,,Clear,20,2012-11-13 20:51:00
2:11 PM,48.0,11.3,23,30.20,10.0,NE,13.8,18.4,N/A,,Clear,40,2012-11-13 21:11:00
2:31 PM,47.1,12.4,25,30.20,10.0,NE,11.5,19.6,N/A,,Clear,40,2012-11-13 21:31:00
2:51 PM,45.5,14.0,28,30.20,10.0,ENE,11.5,19.6,N/A,,Clear,60,2012-11-13 21:51:00
3:11 PM,44.6,14.0,29,30.21,10.0,ENE,12.7,-,N/A,,Clear,60,2012-11-13 22:11:00
3:31 PM,43.7,14.4,31,30.21,10.0,NE,13.8,19.6,N/A,,Clear,40,2012-11-13 22:31:00
3:51 PM,42.8,14.0,31,30.22,10.0,NNE,9.2,-,N/A,,Clear,20,2012-11-13 22:51:00
4:11 PM,41.2,15.8,36,30.23,10.0,ENE,9.2,-,N/A,,Clear,60,2012-11-13 23:11:00
4:31 PM,37.0,17.1,44,30.23,10.0,NE,5.8,-,N/A,,Clear,50,2012-11-13 23:31:00
4:51 PM,34.3,17.2,50,30.24,10.0,South,4.6,-,N/A,,Clear,180,2012-11-13 23:51:00
5:11 PM,32.2,18.3,57,30.24,10.0,NNE,4.6,-,N/A,,Clear,20,2012-11-14 00:11:00
5:31 PM,33.4,18.3,54,30.25,10.0,NW,5.8,-,N/A,,Clear,320,2012-11-14 00:31:00
5:51 PM,29.5,16.3,58,30.26,10.0,WNW,3.5,-,N/A,,Clear,300,2012-11-14 00:51:00
6:11 PM,30.7,16.7,56,30.26,10.0,North,6.9,-,N/A,,Clear,350,2012-11-14 01:11:00
6:31 PM,30.4,16.3,56,30.27,10.0,Calm,Calm,-,N/A,,Clear,0,2012-11-14 01:31:00
6:51 PM,31.5,18.9,60,30.27,10.0,North,5.8,-,N/A,,Clear,350,2012-11-14 01:51:00
7:11 PM,29.8,17.2,59,30.28,10.0,WNW,5.8,-,N/A,,Clear,290,2012-11-14 02:11:00
7:31 PM,32.7,16.5,51,30.28,10.0,NNW,4.6,-,N/A,,Clear,340,2012-11-14 02:31:00
7:51 PM,28.9,16.9,61,30.30,10.0,Calm,Calm,-,N/A,,Clear,0,2012-11-14 02:51:00
8:11 PM,30.0,17.4,59,30.30,10.0,NNE,3.5,-,N/A,,Clear,30,2012-11-14 03:11:00
8:31 PM,30.7,17.6,58,30.32,10.0,WNW,3.5,-,N/A,,Clear,300,2012-11-14 03:31:00
8:51 PM,26.2,15.8,65,30.31,10.0,Calm,Calm,-,N/A,,Clear,0,2012-11-14 03:51:00
9:11 PM,25.0,15.6,68,30.32,10.0,West,3.5,-,N/A,,Clear,270,2012-11-14 04:11:00
9:31 PM,23.9,15.4,70,30.32,10.0,West,3.5,-,N/A,,Clear,280,2012-11-14 04:31:00
9:51 PM,25.0,15.4,67,30.31,10.0,Calm,Calm,-,N/A,,Clear,0,2012-11-14 04:51:00
10:11 PM,23.7,14.5,68,30.31,10.0,Calm,Calm,-,N/A,,Clear,0,2012-11-14 05:11:00
10:31 PM,23.0,14.0,68,30.30,10.0,Calm,Calm,-,N/A,,Clear,0,2012-11-14 05:31:00
10:51 PM,20.1,14.0,77,30.30,10.0,Calm,Calm,-,N/A,,Clear,0,2012-11-14 05:51:00
11:11 PM,24.1,16.5,73,30.30,10.0,Calm,Calm,-,N/A,,Clear,0,2012-11-14 06:11:00
11:31 PM,28.6,19.9,70,30.30,10.0,Calm,Calm,-,N/A,,Clear,0,2012-11-14 06:31:00
11:51 PM,26.8,19.6,74,30.30,10.0,SW,3.5,-,N/A,,Clear,230,2012-11-14 06:51:00